OK5TVR-5 Weather Reports


Display with metric or nautical units.
time (UTC)temp
F
wind
direction
speed
MPH
gust
MPH
rain 1hr
in
rain 24hr
in
rain mn
in
humidity
%
barometer
mb
20260503180146 69 0 2.0 4.0 0.00 0.00 0.00 40 1003.9
20260503174643 71 90 0.0 0.0 0.00 0.00 0.00 42 1003.8
20260503173142 72 90 0.0 0.0 0.00 0.00 0.00 45 1003.7
20260503171640 74 90 0.0 0.0 0.00 0.00 0.00 39 1003.6
20260503170138 75 90 0.0 0.0 0.00 0.00 0.00 37 1003.5
20260503160135 85 90 2.0 6.0 0.00 0.00 0.00 18 1002.9
20260503160131 85 90 2.0 6.0 0.00 0.00 0.00 18 1002.9
20260503150130 84 135 5.0 11.0 0.00 0.00 0.00 15 1003.0
20260503150126 84 135 5.0 11.0 0.00 0.00 0.00 15 1003.0
20260503140130 86 0 3.0 9.0 0.00 0.00 0.00 17 1003.9
20260503140126 86 0 3.0 9.0 0.00 0.00 0.00 17 1003.9
20260503130130 86 270 1.0 4.0 0.00 0.00 0.00 18 1003.9
20260503130126 86 270 1.0 4.0 0.00 0.00 0.00 18 1003.9
20260503120129 84 180 2.0 4.0 0.00 0.00 0.00 21 1005.1
20260503120124 84 180 2.0 4.0 0.00 0.00 0.00 21 1005.1
20260503110123 0 180 3.0 7.0 0.00 0.80 0.00 24 1006.1
20260503110119 84 180 3.0 7.0 0.00 0.00 0.00 24 1006.1
20260503100115 0 90 2.0 0.0 0.00 0.00 0.00 26 1006.5
20260503090110 74 135 1.0 4.0 0.00 0.00 0.00 34 1007.8
20260503080105 69 90 1.0 3.0 0.00 0.00 0.00 40 1008.1
20260503071608 65 135 1.0 3.0 0.00 0.00 0.00 47 1009.5
20260503071603 65 135 1.0 3.0 0.00 0.00 0.00 47 1009.5
20260503053059 49 222 1.0 4.0 0.00 0.00 0.00 72 1010.7
20260503051557 47 222 0.0 0.0 0.00 0.00 0.00 77 1010.7
20260503050057 44 222 1.0 4.0 0.00 0.00 0.00 78 1012.0
20260503044556 43 270 0.0 0.0 0.00 0.00 0.00 87 1012.1
20260503043055 0 270 0.0 0.0 0.00 0.00 0.00 85 1012.2
20260503041555 40 270 0.0 0.0 0.00 0.00 0.00 86 1012.3
20260503040055 40 222 0.0 0.0 0.00 0.00 0.00 88 1012.3
20260503034551 39 222 0.0 0.0 0.00 0.00 0.00 86 1012.3
20260503033052 40 222 0.0 0.0 0.00 0.00 0.00 85 1012.3
20260503031550 40 90 0.0 0.0 0.00 0.00 0.00 85 1012.2
20260503024545 41 135 0.0 0.0 0.00 0.00 0.00 85 1012.2
20260503023044 40 135 0.0 0.0 0.00 0.00 0.00 83 1012.2
20260503021547 41 135 0.0 0.0 0.00 0.00 0.00
20260503021542 41 135 0.0 0.0 0.00 0.00 0.00 82 1012.2
20260503020040 41 135 0.0 0.0 0.00 0.00 0.00 84 1012.2
20260503014539 41 135 0.0 0.0 0.00 0.00 0.00 83 1012.2
20260503013038 42 135 0.0 0.0 0.00 0.00 0.00 83 1012.1
20260503011539 42 135 0.0 0.0 0.00 0.00 0.00 80 1012.1
20260503010038 43 135 0.0 0.0 0.00 0.00 0.00 79 1012.0
20260503004536 43 135 0.0 0.0 0.00 0.00 0.00 77 1012.0
20260503003034 44 135 0.0 0.0 0.00 0.00 0.00 76 1012.0
20260503001532 44 135 0.0 0.0 0.00 0.00 0.00 75 1011.9
20260503000032 45 135 0.0 0.0 0.00 0.00 0.00 73 1011.9
20260502234530 45 135 0.0 0.0 0.00 0.00 0.00 72 1011.8
20260502233028 46 135 0.0 0.0 0.00 0.00 0.00 71 1011.8
20260502230021 46 270 0.0 0.0 0.00 0.00 0.00 72 1011.8
20260502224518 47 180 0.0 0.0 0.00 0.00 0.00 69 1011.7
20260502223017 48 270 1.0 2.0 0.00 0.00 0.00 68 1011.7
20260502221516 48 270 0.0 0.0 0.00 0.00 0.00 68 1011.6
20260502215248 49 135 0.0 0.0 0.00 0.00 0.00 64 1011.6
20260502213746 50 270 0.0 0.0 0.00 0.00 0.00 65 1011.5
20260502212245 51 270 0.0 0.0 0.00 0.00 0.00 62 1011.5
20260502210744 51 270 0.0 0.0 0.00 0.00 0.00 60 1011.4
20260502205242 52 270 0.0 0.0 0.00 0.00 0.00 59 1011.4
20260502203740 53 270 0.0 0.0 0.00 0.00 0.00 58 1011.3
20260502202241 54 270 0.0 0.0 0.00 0.00 0.00 56 1011.2
20260502200740 55 270 0.0 0.0 0.00 0.00 0.00 54 1011.2
20260502195237 55 270 0.0 0.0 0.00 0.00 0.00 54 1011.1
20260502193735 56 270 0.0 0.0 0.00 0.00 0.00 51 1011.0
20260502192233 57 270 0.0 0.0 0.00 0.00 0.00 49 1011.0
20260502190733 58 270 0.0 0.0 0.00 0.00 0.00 49 1010.9
20260502185233 59 270 0.0 0.0 0.00 0.00 0.00 49 1010.8